Flag for Germany Weather past 2 weeks in Cottbus, Brandenburg, Germany

Now
34 °F

Sunny.


Feels Like: 34 °F
Forecast: 31 / 56 °F
Wind: 2 mph from Northwest

Location: Cottbus

Current Time: Apr 18, 2015 at 7:29:57 AM

Latest Report: Apr 18, 2015 at 7:00 AM


Visibility: 16 mi

Pressure: 30.22 "Hg

Humidity: 92%

Dew point: 32 °F

Location of CottbusLocation

Historic Weather in Cottbus — Graph

°F

Cottbus temperature yesterday

Maximum temperature yesterday: 52 °F (at 1:00 PM)
Minimum temperature yesterday: 36 °F (at 2:00 AM)
Average temperature yesterday: 45 °F

Past Weeks' High & Low Weather Summary

 TemperatureHumidityPressure
High73 °F (Apr 15, 5:00 PM)100% (Apr 3, 10:00 PM)30.57 "Hg (Apr 3, 10:00 PM)
Low25 °F (Apr 5, 5:00 AM)24% (Apr 12, 6:00 PM)29.84 "Hg (Apr 15, 8:00 PM)
Average47 °F66%30.19 "Hg
* Reported Apr 3 6:00 AM — Apr 18 6:00 AM, Cottbus, Weather by CustomWeather, © 2015

Note: Actual official high and low records may vary slightly from our data, if they occured in-between our weather recording intervals... More about our weather records

Advertising

Cottbus weather history for previous 24 hours

 ConditionsComfort  
Time TempWeatherWind HumidityBarometerVisibility
6:00 AM
Sat, Apr 18
33 °FSunny.1 mph95%30.20 "Hg17 mi
5:00 AM35 °FClear.2 mph91%30.18 "Hg19 mi
4:00 AM38 °FPassing clouds.2 mph89%30.16 "Hg25 mi
3:00 AM39 °FPassing clouds.2 mph85%30.14 "Hg28 mi
2:00 AM40 °FClear.2 mph82%30.12 "Hg34 mi
1:00 AM42 °FPassing clouds.2 mph76%30.10 "Hg43 mi
12:00 AM44 °FOvercast.1 mph74%30.07 "Hg40 mi
11:00 PM
Fri, Apr 17
45 °FOvercast.2 mph71%30.06 "Hg40 mi
10:00 PM46 °FOvercast.3 mph63%30.04 "Hg43 mi
9:00 PM45 °FOvercast.1 mph63%30.01 "Hg40 mi
8:00 PM49 °FOvercast.2 mph50%29.98 "Hg43 mi
7:00 PM51 °FOvercast.3 mph47%29.96 "Hg43 mi
6:00 PM52 °FPartly sunny.5 mph47%29.96 "Hg34 mi
5:00 PM50 °FOvercast.5 mph52%29.96 "Hg43 mi
4:00 PM51 °FOvercast.3 mph51%29.96 "Hg43 mi
3:00 PM52 °FOvercast.5 mph52%29.96 "Hg34 mi
2:00 PM51 °FOvercast.5 mph46%29.96 "Hg37 mi
1:00 PM52 °FOvercast.5 mph49%29.96 "Hg28 mi
12:00 PM50 °FOvercast.5 mph56%29.95 "Hg19 mi
11:00 AM49 °FOvercast.3 mph62%29.96 "Hg15 mi
10:00 AM46 °FOvercast.2 mph73%29.96 "Hg17 mi
9:00 AM43 °FOvercast.2 mph76%29.96 "Hg19 mi
8:00 AM41 °FOvercast.2 mph76%29.95 "Hg22 mi
7:00 AM39 °FOvercast.1 mph80%29.94 "Hg22 mi
Weather by CustomWeather, © 2015

See weather overviewHow to use our weather pages